| time (UTC) | temp F | wind direction | speed MPH | gust MPH | rain 1hr in | rain 24hr in | rain mn in | humidity % | barometer mb |
| 20260904164658 | 68 | 180 | 0.0 | 0.0 | 0.00 | 0.00 | 0.00 | 84 | |
| 20260904164158 | 69 | 180 | 0.0 | 0.0 | 0.00 | 0.00 | 0.00 | 81 | |
| 20260904163658 | 69 | 180 | 0.0 | 0.0 | 0.00 | 0.00 | 0.00 | 81 | |
| 20260904163158 | 70 | 180 | 0.0 | 0.0 | 0.00 | 0.00 | 0.00 | 76 | |
| 20260904162658 | 70 | 180 | 0.0 | 0.0 | 0.00 | 0.00 | 0.00 | 77 | |
| 20260904162158 | 71 | 180 | 0.0 | 0.0 | 0.00 | 0.00 | 0.00 | 73 | |
| 20260904161658 | 71 | 180 | 0.0 | 0.0 | 0.00 | 0.00 | 0.00 | 71 | |
| 20260904161158 | 71 | 180 | 0.0 | 2.0 | 0.00 | 0.00 | 0.00 | 72 | |
| 20260904160658 | 72 | 180 | 0.0 | 0.0 | 0.00 | 0.00 | 0.00 | 63 | |
| 20260904160158 | 72 | 180 | 0.0 | 0.0 | 0.00 | 0.00 | 0.00 | 63 | |
| 20260904155658 | 73 | 180 | 0.0 | 0.0 | 0.00 | 0.00 | 0.00 | 62 | |
| 20260904155158 | 74 | 180 | 0.0 | 0.0 | 0.00 | 0.00 | 0.00 | 60 | |
| 20260904154658 | 74 | 180 | 0.0 | 0.0 | 0.00 | 0.00 | 0.00 | 56 | |
| 20260904154158 | 75 | 180 | 0.0 | 1.0 | 0.00 | 0.00 | 0.00 | 54 | |
| 20260904153658 | 75 | 180 | 0.0 | 3.0 | 0.00 | 0.00 | 0.00 | 51 | |
| 20260904153158 | 75 | 180 | 0.0 | 4.0 | 0.00 | 0.00 | 0.00 | 52 | |
| 20260904152658 | 75 | 180 | 2.0 | 3.0 | 0.00 | 0.00 | 0.00 | 50 | |
| 20260904152158 | 75 | 180 | 0.0 | 2.0 | 0.00 | 0.00 | 0.00 | 50 | |
| 20260904151658 | 75 | 180 | 0.0 | 7.0 | 0.00 | 0.00 | 0.00 | 49 | |
| 20260904151158 | 75 | 180 | 0.0 | 3.0 | 0.00 | 0.00 | 0.00 | 51 | |
| 20260904150658 | 75 | 180 | 0.0 | 4.0 | 0.00 | 0.00 | 0.00 | 49 | |
| 20260904150158 | 75 | 180 | 0.0 | 4.0 | 0.00 | 0.00 | 0.00 | 50 | |
| 20260904145658 | 75 | 180 | 0.0 | 8.0 | 0.00 | 0.00 | 0.00 | 49 | |
| 20260904145158 | 76 | 180 | 5.0 | 7.0 | 0.00 | 0.00 | 0.00 | 48 | |
| 20260904144658 | 76 | 180 | 2.0 | 8.0 | 0.00 | 0.00 | 0.00 | 47 | |
| 20260904144158 | 76 | 180 | 1.0 | 8.0 | 0.00 | 0.00 | 0.00 | 47 | |
| 20260904143658 | 75 | 180 | 0.0 | 5.0 | 0.00 | 0.00 | 0.00 | 51 | |
| 20260904143206 | 74 | 180 | 3.0 | 9.0 | 0.00 | 0.00 | 0.00 | 51 | |
| 20260904142658 | 74 | 180 | 3.0 | 9.0 | 0.00 | 0.00 | 0.00 | 50 | |
| 20260904142158 | 75 | 180 | 2.0 | 8.0 | 0.00 | 0.00 | 0.00 | 51 | |
| 20260904141658 | 75 | 180 | 3.0 | 7.0 | 0.00 | 0.00 | 0.00 | 50 | |
| 20260904141158 | 75 | 180 | 0.0 | 9.0 | 0.00 | 0.00 | 0.00 | 49 | |
| 20260904140658 | 76 | 180 | 2.0 | 5.0 | 0.00 | 0.00 | 0.00 | 49 | |
| 20260904140159 | 76 | 180 | 0.0 | 9.0 | 0.00 | 0.00 | 0.00 | 47 | |
| 20260904135659 | 76 | 180 | 1.0 | 8.0 | 0.00 | 0.00 | 0.00 | 48 | |
| 20260904135159 | 76 | 180 | 2.0 | 7.0 | 0.00 | 0.00 | 0.00 | 47 | |
| 20260904134659 | 76 | 180 | 4.0 | 7.0 | 0.00 | 0.00 | 0.00 | 48 | |
| 20260904134159 | 76 | 180 | 1.0 | 5.0 | 0.00 | 0.00 | 0.00 | 48 | |
| 20260904133659 | 76 | 180 | 2.0 | 8.0 | 0.00 | 0.00 | 0.00 | 48 | |
| 20260904133159 | 76 | 180 | 3.0 | 5.0 | 0.00 | 0.00 | 0.00 | 48 | |
| 20260904132659 | 75 | 180 | 1.0 | 9.0 | 0.00 | 0.00 | 0.00 | 52 | |
| 20260904132159 | 75 | 180 | 1.0 | 9.0 | 0.00 | 0.00 | 0.00 | 53 | |
| 20260904131659 | 75 | 180 | 2.0 | 8.0 | 0.00 | 0.00 | 0.00 | 54 | |
| 20260904131159 | 74 | 180 | 4.0 | 4.0 | 0.00 | 0.00 | 0.00 | 57 | |
| 20260904130659 | 73 | 180 | 1.0 | 8.0 | 0.00 | 0.00 | 0.00 | 56 | |
| 20260904130159 | 73 | 180 | 2.0 | 6.0 | 0.00 | 0.00 | 0.00 | 57 | |
| 20260904125659 | 73 | 180 | 4.0 | 7.0 | 0.00 | 0.00 | 0.00 | 56 | |
| 20260904125159 | 73 | 180 | 0.0 | 6.0 | 0.00 | 0.00 | 0.00 | 56 | |
| 20260904124659 | 73 | 180 | 3.0 | 6.0 | 0.00 | 0.00 | 0.00 | 57 | |
| 20260904124159 | 72 | 180 | 0.0 | 9.0 | 0.00 | 0.00 | 0.00 | 56 | |
| 20260904123659 | 72 | 180 | 1.0 | 7.0 | 0.00 | 0.00 | 0.00 | 55 | |
| 20260904123159 | 72 | 180 | 5.0 | 8.0 | 0.00 | 0.00 | 0.00 | 53 | |
| 20260904122659 | 73 | 180 | 1.0 | 11.0 | 0.00 | 0.00 | 0.00 | 53 | |
| 20260904122159 | 74 | 180 | 0.0 | 9.0 | 0.00 | 0.00 | 0.00 | 52 | |
| 20260904121659 | 74 | 180 | 4.0 | 6.0 | 0.00 | 0.00 | 0.00 | 54 | |
| 20260904121159 | 73 | 180 | 5.0 | 8.0 | 0.00 | 0.00 | 0.00 | 54 | |
| 20260904120659 | 73 | 180 | 2.0 | 8.0 | 0.00 | 0.00 | 0.00 | 53 | |
| 20260904120159 | 73 | 180 | 5.0 | 8.0 | 0.00 | 0.00 | 0.00 | 54 | |
| 20260904115659 | 73 | 180 | 2.0 | 10.0 | 0.00 | 0.00 | 0.00 | 54 | |
| 20260904115159 | 72 | 180 | 6.0 | 9.0 | 0.00 | 0.00 | 0.00 | 55 | |
| 20260904114659 | 73 | 180 | 4.0 | 8.0 | 0.00 | 0.51 | 0.00 | 54 | |
| 20260904114159 | 72 | 180 | 0.0 | 8.0 | 0.00 | 0.51 | 0.00 | 57 | |
| 20260904113659 | 72 | 180 | 0.0 | 8.0 | 0.00 | 0.51 | 0.00 | 59 | |
| 20260904113218 | 72 | 180 | 5.0 | 10.0 | 0.00 | 0.51 | 0.00 | 57 | |
| 20260904112659 | 71 | 180 | 5.0 | 9.0 | 0.00 | 0.51 | 0.00 | 57 | |
| 20260904112159 | 72 | 180 | 2.0 | 7.0 | 0.00 | 0.51 | 0.00 | 57 | |
| 20260904111659 | 71 | 180 | 4.0 | 14.0 | 0.00 | 0.51 | 0.00 | 58 | |
| 20260904111159 | 72 | 180 | 8.0 | 9.0 | 0.00 | 0.51 | 0.00 | 60 | |
| 20260904110659 | 71 | 180 | 3.0 | 8.0 | 0.00 | 0.51 | 0.00 | 60 | |
| 20260904110225 | 71 | 180 | 5.0 | 12.0 | 0.00 | 0.51 | 0.00 | 61 | |
| 20260904105659 | 71 | 180 | 1.0 | 8.0 | 0.00 | 0.51 | 0.00 | 62 | |
| 20260904105159 | 71 | 180 | 1.0 | 8.0 | 0.00 | 0.51 | 0.00 | 61 | |
| 20260904104659 | 71 | 180 | 0.0 | 5.0 | 0.00 | 0.51 | 0.00 | 67 | |
| 20260904104159 | 71 | 180 | 3.0 | 7.0 | 0.00 | 0.51 | 0.00 | 64 | |
| 20260904103659 | 70 | 180 | 2.0 | 9.0 | 0.00 | 0.51 | 0.00 | 67 | |
| 20260904103159 | 70 | 180 | 2.0 | 7.0 | 0.00 | 0.51 | 0.00 | 69 | |
| 20260904102659 | 70 | 180 | 1.0 | 8.0 | 0.00 | 0.51 | 0.00 | 67 | |
| 20260904102159 | 70 | 180 | 2.0 | 7.0 | 0.00 | 0.51 | 0.00 | 65 | |
| 20260904101659 | 70 | 180 | 2.0 | 5.0 | 0.00 | 0.51 | 0.00 | 69 | |
| 20260904101159 | 70 | 180 | 0.0 | 7.0 | 0.00 | 0.51 | 0.00 | 68 | |
| 20260904100659 | 70 | 180 | 0.0 | 6.0 | 0.00 | 0.51 | 0.00 | 70 | |
| 20260904100159 | 69 | 180 | 2.0 | 6.0 | 0.00 | 0.51 | 0.00 | 68 | |
| 20260904095659 | 69 | 180 | 1.0 | 5.0 | 0.00 | 0.51 | 0.00 | 69 | |
| 20260904095159 | 69 | 180 | 0.0 | 7.0 | 0.00 | 0.51 | 0.00 | 70 | |
| 20260904094659 | 69 | 180 | 0.0 | 8.0 | 0.00 | 0.51 | 0.00 | 74 | |
| 20260904094159 | 69 | 180 | 6.0 | 16.0 | 0.00 | 0.51 | 0.00 | 70 | |
| 20260904093659 | 69 | 180 | 5.0 | 8.0 | 0.00 | 0.51 | 0.00 | 70 | |
| 20260904093159 | 68 | 180 | 7.0 | 10.0 | 0.00 | 0.51 | 0.00 | 75 | |
| 20260904092659 | 69 | 180 | 0.0 | 5.0 | 0.00 | 0.51 | 0.00 | 74 | |
| 20260904092159 | 68 | 180 | 2.0 | 9.0 | 0.00 | 0.51 | 0.00 | 73 | |
| 20260904091659 | 68 | 180 | 4.0 | 5.0 | 0.00 | 0.51 | 0.00 | 77 | |
| 20260904091159 | 68 | 180 | 3.0 | 7.0 | 0.00 | 0.51 | 0.00 | 75 | |
| 20260904090715 | 68 | 180 | 1.0 | 4.0 | 0.00 | 0.51 | 0.00 | 78 | |
| 20260904090159 | 68 | 180 | 2.0 | 4.0 | 0.00 | 0.51 | 0.00 | 78 | |
| 20260904085659 | 68 | 180 | 0.0 | 4.0 | 0.00 | 0.51 | 0.00 | 81 | |
| 20260904085201 | 68 | 180 | 1.0 | 6.0 | 0.00 | 0.51 | 0.00 | 80 | |
| 20260904084659 | 67 | 180 | 0.0 | 4.0 | 0.00 | 0.51 | 0.51 | 81 | |
| 20260904084159 | 66 | 180 | 0.0 | 5.0 | 0.00 | 0.51 | 0.51 | 86 | |
| 20260904083659 | 66 | 180 | 0.0 | 5.0 | 0.00 | 0.51 | 0.51 | 87 | |
| 20260904083159 | 65 | 180 | 0.0 | 3.0 | 0.00 | 0.51 | 0.51 | 88 | |
| 20260904082659 | 65 | 180 | 0.0 | 3.0 | 0.00 | 0.51 | 0.51 | 92 | |
| 20260904082159 | 65 | 180 | 0.0 | 2.0 | 0.00 | 0.51 | 0.51 | 92 | |
| 20260904081659 | 64 | 180 | 2.0 | 2.0 | 0.00 | 0.51 | 0.51 | 93 | |
| 20260904081159 | 64 | 180 | 0.0 | 1.0 | 0.00 | 0.51 | 0.51 | 94 | |
| 20260904080659 | 64 | 180 | 0.0 | 1.0 | 0.00 | 0.51 | 0.51 | 94 | |
| 20260904080159 | 63 | 180 | 0.0 | 3.0 | 0.00 | 0.51 | 0.51 | 95 | |
| 20260904075659 | 63 | 180 | 0.0 | 0.0 | 0.00 | 0.51 | 0.51 | 95 | |
| 20260904075159 | 63 | 180 | 0.0 | 0.0 | 0.00 | 0.51 | 0.51 | 96 | |
| 20260904074659 | 62 | 180 | 0.0 | 0.0 | 0.00 | 0.51 | 0.51 | 95 | |
| 20260904074159 | 62 | 180 | 0.0 | 0.0 | 0.00 | 0.51 | 0.51 | 96 | |
| 20260904073659 | 62 | 180 | 0.0 | 0.0 | 0.00 | 0.51 | 0.51 | 97 | |
| 20260904073159 | 62 | 180 | 0.0 | 0.0 | 0.00 | 0.51 | 0.51 | 97 | |
| 20260904072659 | 61 | 180 | 0.0 | 0.0 | 0.00 | 0.51 | 0.51 | 98 | |
| 20260904072200 | 61 | 180 | 0.0 | 0.0 | 0.00 | 0.51 | 0.51 | 98 | |
| 20260904071700 | 61 | 180 | 0.0 | 0.0 | 0.00 | 0.51 | 0.51 | 100 | |
| 20260904071200 | 60 | 180 | 0.0 | 0.0 | 0.00 | 0.51 | 0.51 | 100 | |
| 20260904070700 | 60 | 180 | 0.0 | 0.0 | 0.00 | 0.51 | 0.51 | 100 | |
| 20260904070200 | 60 | 180 | 0.0 | 0.0 | 0.00 | 0.51 | 0.51 | 100 | |
| 20260904065700 | 60 | 180 | 0.0 | 0.0 | 0.00 | 0.51 | 0.51 | 100 | |
| 20260904065200 | 59 | 180 | 0.0 | 0.0 | 0.00 | 0.51 | 0.51 | 100 | |
| 20260904064815 | 59 | 180 | 0.0 | 0.0 | 0.00 | 0.51 | 0.51 | 100 | |
| 20260904064200 | 59 | 180 | 0.0 | 0.0 | 0.00 | 0.51 | 0.51 | 100 | |
| 20260904063700 | 59 | 180 | 0.0 | 0.0 | 0.00 | 0.51 | 0.51 | 100 | |
| 20260904063200 | 58 | 180 | 0.0 | 0.0 | 0.00 | 0.51 | 0.51 | 100 | |
| 20260904062700 | 58 | 180 | 0.0 | 0.0 | 0.00 | 0.51 | 0.51 | 100 | |
| 20260904062200 | 58 | 180 | 0.0 | 0.0 | 0.00 | 0.51 | 0.51 | 100 | |
| 20260904061700 | 58 | 180 | 0.0 | 0.0 | 0.00 | 0.51 | 0.51 | 100 | |
| 20260904061200 | 57 | 180 | 0.0 | 0.0 | 0.00 | 0.51 | 0.51 | 100 | |
| 20260904060700 | 57 | 180 | 0.0 | 0.0 | 0.00 | 0.51 | 0.51 | 100 | |
| 20260904060200 | 57 | 180 | 0.0 | 0.0 | 0.00 | 0.51 | 0.51 | 100 | |
| 20260904055700 | 57 | 180 | 0.0 | 0.0 | 0.00 | 0.51 | 0.51 | 100 | |
| 20260904055200 | 56 | 180 | 0.0 | 0.0 | 0.00 | 0.51 | 0.51 | 100 | |
| 20260904054700 | 56 | 180 | 0.0 | 0.0 | 0.00 | 0.53 | 0.51 | 100 | |
| 20260904054200 | 56 | 180 | 0.0 | 0.0 | 0.00 | 0.53 | 0.51 | 100 | |
| 20260904053700 | 56 | 180 | 0.0 | 0.0 | 0.00 | 0.53 | 0.51 | 100 | |
| 20260904053204 | 56 | 180 | 0.0 | 0.0 | 0.00 | 0.53 | 0.51 | 100 | |
| 20260904052700 | 55 | 180 | 0.0 | 0.0 | 0.00 | 0.53 | 0.51 | 100 | |
| 20260904052200 | 55 | 180 | 0.0 | 0.0 | 0.00 | 0.53 | 0.51 | 100 | |
| 20260904051700 | 54 | 180 | 0.0 | 0.0 | 0.00 | 0.53 | 0.51 | 100 | |
| 20260904051200 | 54 | 180 | 0.0 | 0.0 | 0.00 | 0.53 | 0.51 | 100 | |
| 20260904050700 | 54 | 180 | 0.0 | 0.0 | 0.00 | 0.53 | 0.51 | 100 | |
| 20260904050200 | 54 | 180 | 0.0 | 0.0 | 0.00 | 0.53 | 0.51 | 100 | |
| 20260904045700 | 53 | 180 | 0.0 | 0.0 | 0.00 | 0.53 | 0.51 | 100 | |
| 20260904045200 | 53 | 180 | 0.0 | 0.0 | 0.00 | 0.53 | 0.51 | 100 | |
| 20260904044700 | 53 | 180 | 0.0 | 0.0 | 0.00 | 0.56 | 0.51 | 100 | |
| 20260904044200 | 53 | 180 | 0.0 | 0.0 | 0.00 | 0.56 | 0.51 | 100 | |
| 20260904043700 | 53 | 180 | 0.0 | 0.0 | 0.00 | 0.56 | 0.51 | 100 | |
| 20260904042700 | 52 | 180 | 0.0 | 0.0 | 0.00 | 0.56 | 0.51 | 100 | |
| 20260904042200 | 52 | 180 | 0.0 | 0.0 | 0.00 | 0.56 | 0.51 | 100 | |
| 20260904041700 | 52 | 180 | 0.0 | 0.0 | 0.00 | 0.56 | 0.51 | 100 | |
| 20260904041200 | 52 | 180 | 0.0 | 0.0 | 0.00 | 0.56 | 0.51 | 100 | |
| 20260904040700 | 52 | 180 | 0.0 | 0.0 | 0.00 | 0.56 | 0.51 | 100 | |
| 20260904040200 | 52 | 180 | 0.0 | 0.0 | 0.00 | 0.56 | 0.51 | 100 | |
| 20260904035200 | 51 | 180 | 0.0 | 0.0 | 0.00 | 0.56 | 0.51 | 100 | |
| 20260904034700 | 51 | 180 | 0.0 | 0.0 | 0.00 | 0.56 | 0.51 | 100 | |
| 20260904034200 | 51 | 180 | 0.0 | 0.0 | 0.00 | 0.56 | 0.51 | 100 | |
| 20260904033700 | 51 | 180 | 0.0 | 0.0 | 0.00 | 0.56 | 0.51 | 100 | |
| 20260904033200 | 50 | 180 | 0.0 | 0.0 | 0.00 | 0.56 | 0.51 | 100 | |
| 20260904032700 | 50 | 180 | 0.0 | 0.0 | 0.00 | 0.56 | 0.51 | 100 | |
| 20260904032200 | 50 | 180 | 0.0 | 0.0 | 0.00 | 0.56 | 0.51 | 100 | |
| 20260904031700 | 50 | 180 | 0.0 | 0.0 | 0.00 | 0.56 | 0.51 | 100 | |
| 20260904031200 | 50 | 180 | 0.0 | 0.0 | 0.00 | 0.56 | 0.51 | 100 | |
| 20260904030700 | 50 | 180 | 0.0 | 0.0 | 0.00 | 0.56 | 0.51 | 100 | |
| 20260904030200 | 50 | 180 | 0.0 | 0.0 | 0.00 | 0.56 | 0.51 | 100 | |
| 20260904025700 | 50 | 180 | 0.0 | 0.0 | 0.00 | 0.56 | 0.51 | 100 | |
| 20260904025200 | 50 | 180 | 0.0 | 0.0 | 0.00 | 0.56 | 0.51 | 100 | |
| 20260904024700 | 50 | 180 | 0.0 | 0.0 | 0.00 | 0.56 | 0.51 | 100 | |
| 20260904024200 | 50 | 180 | 0.0 | 0.0 | 0.00 | 0.56 | 0.51 | 100 | |
| 20260904023700 | 50 | 180 | 0.0 | 0.0 | 0.00 | 0.56 | 0.51 | 100 | |
| 20260904023200 | 50 | 180 | 0.0 | 0.0 | 0.00 | 0.56 | 0.51 | 100 | |
| 20260904022700 | 50 | 180 | 0.0 | 0.0 | 0.00 | 0.56 | 0.51 | 100 | |
| 20260904022200 | 50 | 180 | 0.0 | 0.0 | 0.00 | 0.56 | 0.51 | 100 | |
| 20260904021700 | 50 | 180 | 0.0 | 0.0 | 0.00 | 0.56 | 0.51 | 100 | |
| 20260904021200 | 50 | 180 | 0.0 | 0.0 | 0.00 | 0.56 | 0.51 | 100 | |
| 20260904020700 | 50 | 180 | 0.0 | 0.0 | 0.00 | 0.56 | 0.51 | 100 | |
| 20260904020200 | 50 | 180 | 0.0 | 0.0 | 0.00 | 0.56 | 0.51 | 100 | |
| 20260904015700 | 50 | 180 | 0.0 | 0.0 | 0.00 | 0.56 | 0.51 | 100 | |
| 20260904015200 | 50 | 180 | 0.0 | 0.0 | 0.00 | 0.56 | 0.51 | 100 | |
| 20260904014700 | 50 | 180 | 0.0 | 0.0 | 0.00 | 0.56 | 0.51 | 100 | |
| 20260904014200 | 51 | 180 | 0.0 | 0.0 | 0.00 | 0.56 | 0.51 | 100 | |
| 20260904013700 | 50 | 180 | 0.0 | 0.0 | 0.00 | 0.56 | 0.51 | 100 | |
| 20260904013200 | 50 | 180 | 0.0 | 0.0 | 0.00 | 0.56 | 0.51 | 100 | |
| 20260904012700 | 51 | 180 | 0.0 | 0.0 | 0.00 | 0.56 | 0.51 | 100 | |
| 20260904012200 | 51 | 180 | 0.0 | 0.0 | 0.00 | 0.56 | 0.51 | 100 | |
| 20260904011700 | 51 | 180 | 0.0 | 0.0 | 0.00 | 0.56 | 0.51 | 100 | |
| 20260904011200 | 51 | 180 | 0.0 | 0.0 | 0.00 | 0.56 | 0.51 | 100 | |
| 20260904010701 | 51 | 180 | 0.0 | 0.0 | 0.00 | 0.56 | 0.51 | 100 | |
| 20260904010201 | 51 | 180 | 0.0 | 0.0 | 0.00 | 0.56 | 0.51 | 100 | |
| 20260904005701 | 51 | 180 | 0.0 | 0.0 | 0.00 | 0.56 | 0.51 | 100 | |
| 20260904005203 | 51 | 180 | 0.0 | 0.0 | 0.00 | 0.56 | 0.51 | 100 | |
| 20260904004701 | 51 | 180 | 0.0 | 0.0 | 0.00 | 0.56 | 0.51 | 100 | |
| 20260904004201 | 51 | 180 | 0.0 | 0.0 | 0.00 | 0.56 | 0.51 | 100 | |
| 20260904003701 | 52 | 180 | 0.0 | 0.0 | 0.00 | 0.56 | 0.51 | 100 | |
| 20260904003201 | 52 | 180 | 0.0 | 0.0 | 0.00 | 0.56 | 0.51 | 100 | |
| 20260904002701 | 52 | 180 | 0.0 | 0.0 | 0.00 | 0.56 | 0.51 | 100 | |
| 20260904002203 | 51 | 180 | 0.0 | 0.0 | 0.00 | 0.56 | 0.51 | 100 | |
| 20260904001701 | 52 | 180 | 0.0 | 0.0 | 0.00 | 0.56 | 0.51 | 100 | |
| 20260904001201 | 52 | 180 | 0.0 | 0.0 | 0.00 | 0.56 | 0.51 | 100 | |
| 20260904000702 | 52 | 180 | 0.0 | 0.0 | 0.00 | 0.56 | 0.51 | 100 | |
| 20260904000201 | 52 | 180 | 0.0 | 0.0 | 0.00 | 0.56 | 0.51 | 100 | |
| 20260903235701 | 52 | 180 | 0.0 | 0.0 | 0.00 | 0.56 | 0.51 | 100 | |
| 20260903235201 | 52 | 180 | 0.0 | 0.0 | 0.00 | 0.56 | 0.51 | 100 | |
| 20260903234701 | 52 | 180 | 0.0 | 0.0 | 0.00 | 0.56 | 0.51 | 100 | |
| 20260903234203 | 52 | 180 | 0.0 | 0.0 | 0.00 | 0.56 | 0.51 | 100 | |
| 20260903233701 | 52 | 180 | 0.0 | 0.0 | 0.00 | 0.56 | 0.51 | 100 | |
| 20260903233201 | 52 | 180 | 0.0 | 0.0 | 0.00 | 0.56 | 0.51 | 100 | |
| 20260903232701 | 52 | 180 | 0.0 | 0.0 | 0.00 | 0.56 | 0.51 | 100 | |
| 20260903232204 | 52 | 180 | 0.0 | 0.0 | 0.00 | 0.56 | 0.51 | 100 | |
| 20260903231701 | 53 | 180 | 0.0 | 0.0 | 0.00 | 0.56 | 0.51 | 100 | |
| 20260903231201 | 53 | 180 | 0.0 | 0.0 | 0.00 | 0.56 | 0.51 | 100 | |
| 20260903230703 | 53 | 180 | 0.0 | 0.0 | 0.00 | 0.56 | 0.51 | 100 | |
| 20260903230201 | 53 | 180 | 0.0 | 0.0 | 0.00 | 0.56 | 0.51 | 100 | |
| 20260903225701 | 53 | 180 | 0.0 | 0.0 | 0.00 | 0.56 | 0.51 | 100 | |
| 20260903225201 | 53 | 180 | 0.0 | 0.0 | 0.00 | 0.56 | 0.51 | 100 | |
| 20260903224701 | 53 | 180 | 0.0 | 0.0 | 0.00 | 0.56 | 0.51 | 100 | |
| 20260903224201 | 53 | 180 | 0.0 | 0.0 | 0.00 | 0.56 | 0.51 | 100 | |
| 20260903223701 | 53 | 180 | 0.0 | 0.0 | 0.00 | 0.56 | 0.51 | 100 | |
| 20260903223201 | 54 | 180 | 0.0 | 0.0 | 0.00 | 0.56 | 0.51 | 100 | |
| 20260903222701 | 54 | 180 | 0.0 | 0.0 | 0.00 | 0.56 | 0.51 | 100 | |
| 20260903222201 | 54 | 180 | 0.0 | 0.0 | 0.00 | 0.56 | 0.51 | 100 | |
| 20260903221701 | 54 | 180 | 0.0 | 0.0 | 0.00 | 0.56 | 0.51 | 100 | |
| 20260903221201 | 54 | 180 | 0.0 | 0.0 | 0.00 | 0.56 | 0.51 | 100 | |
| 20260903220701 | 54 | 180 | 0.0 | 0.0 | 0.00 | 0.56 | 0.51 | 100 | |
| 20260903220201 | 54 | 180 | 0.0 | 0.0 | 0.00 | 0.56 | 0.51 | 100 | |
| 20260903215701 | 54 | 180 | 0.0 | 0.0 | 0.00 | 0.56 | 0.51 | 100 | |
| 20260903215201 | 55 | 180 | 0.0 | 0.0 | 0.00 | 0.56 | 0.51 | 100 | |
| 20260903214701 | 55 | 180 | 0.0 | 0.0 | 0.00 | 0.56 | 0.51 | 100 | |
| 20260903214201 | 54 | 180 | 0.0 | 0.0 | 0.00 | 0.56 | 0.51 | 100 | |
| 20260903213701 | 55 | 180 | 0.0 | 0.0 | 0.00 | 0.56 | 0.51 | 100 | |
| 20260903213201 | 55 | 180 | 0.0 | 0.0 | 0.00 | 0.56 | 0.51 | 100 | |
| 20260903212701 | 55 | 180 | 0.0 | 0.0 | 0.00 | 0.56 | 0.51 | 100 | |
| 20260903212203 | 55 | 180 | 0.0 | 0.0 | 0.00 | 0.56 | 0.51 | 100 | |
| 20260903211705 | 55 | 180 | 0.0 | 0.0 | 0.00 | 0.56 | 0.51 | 100 | |
| 20260903211201 | 56 | 180 | 0.0 | 0.0 | 0.00 | 0.56 | 0.51 | 100 | |
| 20260903210701 | 55 | 180 | 0.0 | 0.0 | 0.00 | 0.56 | 0.51 | 100 | |
| 20260903210201 | 56 | 180 | 0.0 | 0.0 | 0.00 | 0.56 | 0.51 | 100 | |
| 20260903205701 | 56 | 180 | 0.0 | 0.0 | 0.00 | 0.56 | 0.51 | 100 | |
| 20260903205201 | 56 | 180 | 0.0 | 0.0 | 0.00 | 0.56 | 0.51 | 100 | |
| 20260903204701 | 56 | 180 | 0.0 | 0.0 | 0.00 | 0.56 | 0.51 | 100 | |
| 20260903204201 | 57 | 180 | 0.0 | 0.0 | 0.00 | 0.56 | 0.51 | 100 | |
| 20260903203701 | 57 | 180 | 0.0 | 0.0 | 0.00 | 0.56 | 0.51 | 100 | |
| 20260903203201 | 57 | 180 | 0.0 | 0.0 | 0.00 | 0.56 | 0.51 | 100 | |
| 20260903202701 | 57 | 180 | 0.0 | 0.0 | 0.00 | 0.56 | 0.51 | 100 | |
| 20260903202201 | 57 | 180 | 0.0 | 0.0 | 0.00 | 0.56 | 0.51 | 100 | |
| 20260903201701 | 57 | 180 | 0.0 | 0.0 | 0.00 | 0.56 | 0.51 | 100 | |
| 20260903201201 | 57 | 180 | 0.0 | 0.0 | 0.00 | 0.56 | 0.51 | 100 | |
| 20260903200701 | 57 | 180 | 0.0 | 0.0 | 0.00 | 0.56 | 0.51 | 100 | |
| 20260903200201 | 57 | 180 | 0.0 | 0.0 | 0.00 | 0.56 | 0.51 | 100 | |
| 20260903195701 | 57 | 180 | 0.0 | 0.0 | 0.00 | 0.56 | 0.51 | 100 | |
| 20260903195201 | 57 | 180 | 0.0 | 0.0 | 0.00 | 0.56 | 0.51 | 100 | |
| 20260903194701 | 57 | 180 | 0.0 | 0.0 | 0.00 | 0.56 | 0.51 | 100 | |
| 20260903194201 | 57 | 180 | 0.0 | 0.0 | 0.00 | 0.56 | 0.51 | 100 | |
| 20260903193701 | 57 | 180 | 0.0 | 0.0 | 0.00 | 0.56 | 0.51 | 100 | |
| 20260903193201 | 57 | 180 | 0.0 | 0.0 | 0.00 | 0.56 | 0.51 | 100 | |
| 20260903192701 | 57 | 180 | 0.0 | 0.0 | 0.00 | 0.56 | 0.51 | 100 | |
| 20260903192203 | 57 | 180 | 0.0 | 0.0 | 0.00 | 0.56 | 0.51 | 100 | |
| 20260903191701 | 57 | 180 | 0.0 | 0.0 | 0.00 | 0.56 | 0.51 | 100 | |
| 20260903191201 | 57 | 180 | 0.0 | 0.0 | 0.00 | 0.56 | 0.51 | 100 | |
| 20260903190701 | 57 | 180 | 0.0 | 0.0 | 0.00 | 0.56 | 0.51 | 100 | |
| 20260903190201 | 57 | 180 | 0.0 | 0.0 | 0.00 | 0.56 | 0.51 | 100 | |
| 20260903185701 | 57 | 180 | 0.0 | 0.0 | 0.00 | 0.56 | 0.51 | 100 | |
| 20260903185201 | 57 | 180 | 0.0 | 0.0 | 0.00 | 0.56 | 0.51 | 100 | |
| 20260903184701 | 57 | 180 | 0.0 | 0.0 | 0.00 | 0.56 | 0.51 | 100 | |
| 20260903184203 | 57 | 180 | 0.0 | 0.0 | 0.00 | 0.56 | 0.51 | 100 | |
| 20260903183701 | 57 | 180 | 0.0 | 0.0 | 0.00 | 0.56 | 0.51 | 100 | |
| 20260903183201 | 58 | 180 | 0.0 | 0.0 | 0.00 | 0.56 | 0.51 | 100 | |
| 20260903182702 | 58 | 180 | 0.0 | 0.0 | 0.00 | 0.56 | 0.51 | 100 | |
| 20260903182204 | 58 | 180 | 0.0 | 0.0 | 0.00 | 0.56 | 0.51 | 100 | |
| 20260903181701 | 58 | 180 | 0.0 | 0.0 | 0.00 | 0.56 | 0.51 | 100 | |
| 20260903181202 | 58 | 180 | 0.0 | 0.0 | 0.00 | 0.56 | 0.51 | 100 | |
| 20260903180702 | 59 | 180 | 0.0 | 0.0 | 0.00 | 0.56 | 0.51 | 100 | |
| 20260903180202 | 59 | 180 | 0.0 | 0.0 | 0.00 | 0.56 | 0.51 | 100 | |
| 20260903175702 | 59 | 180 | 0.0 | 0.0 | 0.00 | 0.56 | 0.51 | 100 | |
| 20260903175202 | 59 | 180 | 0.0 | 0.0 | 0.00 | 0.56 | 0.51 | 100 | |
| 20260903174702 | 60 | 180 | 0.0 | 0.0 | 0.00 | 0.56 | 0.51 | 100 | |
| 20260903174202 | 60 | 180 | 0.0 | 0.0 | 0.00 | 0.56 | 0.51 | 100 | |
| 20260903173702 | 60 | 180 | 0.0 | 0.0 | 0.00 | 0.56 | 0.51 | 100 | |
| 20260903173202 | 61 | 180 | 0.0 | 0.0 | 0.00 | 0.56 | 0.51 | 100 | |
| 20260903172702 | 61 | 180 | 0.0 | 0.0 | 0.00 | 0.56 | 0.51 | 99 | |
| 20260903172202 | 61 | 180 | 0.0 | 0.0 | 0.00 | 0.56 | 0.51 | 99 | |
| 20260903171702 | 62 | 180 | 0.0 | 0.0 | 0.00 | 0.56 | 0.51 | 98 | |
| 20260903171202 | 63 | 180 | 0.0 | 0.0 | 0.00 | 0.56 | 0.51 | 98 | |
| 20260903170702 | 63 | 180 | 0.0 | 0.0 | 0.00 | 0.56 | 0.51 | 97 | |
| 20260903170202 | 63 | 180 | 0.0 | 0.0 | 0.00 | 0.56 | 0.51 | 97 | |
| 20260903165702 | 64 | 180 | 0.0 | 0.0 | 0.00 | 0.56 | 0.51 | 96 | |
| 20260903165202 | 65 | 180 | 0.0 | 0.0 | 0.00 | 0.56 | 0.51 | 95 |